Wind from 272 at 7 knots gusting 12

Air temperature 17.8° C
Dewpoint 14.5° C

Last reported at 2014-Apr-23 18:31 UTC.
Time now 2014-Apr-23 19:16 UTC

Location: N 43°37' E 010°38'.
View on Google Maps.

See reports from other nearby stations

Tides Stations Pressure Air Temp Water Temp Dewpoint Dewpoint depression Visibility Wind Speed Wind Dir Waves Ship positions

  
sailing weather and tide predictions

IW5EFR Vecchia di Pontedera IT weather

date/time (UTC)wind fromknots sea level pressurealtimeterstation pressurevisibilityair tempwater tempwave heightnotes
2014-Apr-23 18:31 272 7 gusting 12 17.8
2014-Apr-23 18:09 277 5 gusting 8 18.9
2014-Apr-23 17:36 270 6 gusting 11 19.4
2014-Apr-23 17:25 243 4 gusting 12 19.4
2014-Apr-23 17:14 215 4 gusting 10 20.0
2014-Apr-23 17:03 256 7 gusting 12 20.6
2014-Apr-23 16:41 302 5 gusting 12 21.1
2014-Apr-23 16:30 260 4 gusting 13 21.7
2014-Apr-23 16:19 269 2 gusting 13 21.7
2014-Apr-23 16:08 314 4 gusting 11 21.7
2014-Apr-23 15:57 284 6 gusting 13 22.2
2014-Apr-23 15:35 290 7 gusting 16 22.2
2014-Apr-23 15:24 270 5 gusting 11 22.8
2014-Apr-23 15:13 282 4 gusting 12 22.8
2014-Apr-23 15:02 321 8 gusting 12 22.8
2014-Apr-23 14:51 306 6 gusting 12 22.8
2014-Apr-23 14:40 286 4 gusting 12 22.8
2014-Apr-23 14:29 327 6 gusting 13 22.8
2014-Apr-23 14:18 271 6 gusting 14 22.8
2014-Apr-23 13:45 272 4 gusting 11 22.8
2014-Apr-23 13:34 277 7 gusting 11 22.8
2014-Apr-23 13:12 254 5 gusting 7 23.3
2014-Apr-23 12:50 336 6 gusting 8 23.3
2014-Apr-23 12:39 022 23.3
2014-Apr-23 12:28 017 6 gusting 7 23.9
2014-Apr-23 11:55 015 4 gusting 7 22.8
2014-Apr-23 11:11 021 22.8
2014-Apr-23 11:00 028 3 gusting 6 22.2
2014-Apr-23 10:49 057 3 gusting 8 22.2
2014-Apr-23 10:16 355 6 gusting 6 21.7
2014-Apr-23 10:05 014 21.1
2014-Apr-23 09:32 339 2 gusting 3 18.9
2014-Apr-23 09:21 355 1 gusting 2 18.3
2014-Apr-23 09:10 290 0 gusting 2 17.8
2014-Apr-23 08:59 290 1 gusting 3 16.7
2014-Apr-23 08:48 290 16.1
2014-Apr-23 08:37 290 2 gusting 2 15.6
2014-Apr-23 08:26 290 1 gusting 0 15.0
2014-Apr-23 08:15 168 15.0
2014-Apr-23 07:53 168 1 gusting 3 13.9
2014-Apr-23 07:42 168 1 gusting 2 12.8
2014-Apr-23 07:20 168 0 gusting 3 12.2
2014-Apr-23 07:09 168 4 gusting 3 11.7
2014-Apr-23 06:58 169 2 gusting 3 11.7
2014-Apr-23 06:47 169 2 gusting 3 11.1
2014-Apr-23 06:36 169 1 gusting 3 11.1
2014-Apr-23 06:26 169 0 gusting 2 11.1
2014-Apr-23 05:19 166 1 gusting 3 10.6
2014-Apr-23 05:08 166 2 gusting 3 10.6
2014-Apr-23 04:57 166 1 gusting 2 10.6
2014-Apr-23 04:35 166 1 gusting 2 10.6
2014-Apr-23 04:13 166 1 gusting 3 11.1
2014-Apr-23 04:02 166 1 gusting 3 11.1
2014-Apr-23 03:51 166 0 gusting 3 11.1
2014-Apr-23 03:40 166 11.1
2014-Apr-23 03:29 166 2 gusting 3 11.1
2014-Apr-23 03:18 166 0 gusting 3 11.1
2014-Apr-23 03:07 166 0 gusting 2 11.1
2014-Apr-23 02:56 166 0 11.1
2014-Apr-23 02:45 166 11.1
2014-Apr-23 02:23 166 2 gusting 4 11.1
2014-Apr-23 02:12 166 1 gusting 4 11.1
2014-Apr-23 02:01 167 0 gusting 4 11.1
2014-Apr-23 01:50 167 2 gusting 4 11.1
2014-Apr-23 01:39 169 2 gusting 3 11.1
2014-Apr-23 01:28 170 0 gusting 5 11.1
2014-Apr-23 01:17 170 2 gusting 4 11.7
2014-Apr-23 01:06 181 0 gusting 2 11.7
2014-Apr-23 00:33 176 12.2
2014-Apr-23 00:22 176 12.2
2014-Apr-23 00:11 176 12.2
2014-Apr-23 00:00 176 12.2
2014-Apr-22 23:49 176 0 gusting 1 12.2
2014-Apr-22 23:38 176 12.2
2014-Apr-22 23:27 176 0 gusting 3 12.2
2014-Apr-22 23:16 176 0 gusting 2 12.2
2014-Apr-22 23:05 176 1 gusting 2 12.2
2014-Apr-22 22:54 175 0 gusting 3 12.8
2014-Apr-22 22:43 169 2 gusting 3 12.8
2014-Apr-22 22:32 283 1 12.8
2014-Apr-22 22:22 283 12.8
2014-Apr-22 22:10 282 13.3
2014-Apr-22 21:59 282 13.3
2014-Apr-22 21:48 283 13.3
2014-Apr-22 21:37 283 0 13.9
2014-Apr-22 21:26 283 13.9
2014-Apr-22 21:16 282 -17.8
2014-Apr-22 21:04 283 14.4
2014-Apr-22 20:53 282 1 gusting 2 14.4
2014-Apr-22 20:42 283 15.0
2014-Apr-22 20:31 283 0 gusting 2 15.0
2014-Apr-22 20:20 283 15.6
2014-Apr-22 20:09 283 15.6
2014-Apr-22 19:48 254 3 gusting 5
2014-Apr-22 19:36 263 1 gusting 4 16.1
2014-Apr-22 19:25 268 0 gusting 4 16.1
2014-Apr-22 19:14 268 16.1
2014-Apr-22 18:52 268 0 gusting 3 16.1
2014-Apr-22 18:41 269 16.7
2014-Apr-22 18:30 269 2 gusting 6 16.7
2014-Apr-22 18:08 289 2 gusting 6 17.2
2014-Apr-22 17:57 272 1 gusting 6 17.8
2014-Apr-22 17:35 266 4 gusting 6 17.8
2014-Apr-22 17:24 277 6 gusting 8 18.3
2014-Apr-22 16:40 259 5 gusting 7 19.4
2014-Apr-22 16:29 273 4 gusting 9 19.4
2014-Apr-22 15:56 304 8 gusting 8 20.0
2014-Apr-22 15:46 280 5 gusting 8 20.6
2014-Apr-22 15:35 285 2 gusting 8 20.6
2014-Apr-22 15:23 261 3 gusting 7 20.6
2014-Apr-22 15:12 293 0 gusting 6 21.1
2014-Apr-22 15:01 270 1 gusting 6 21.1
2014-Apr-22 14:39 249 3 gusting 4 21.1
2014-Apr-22 14:28 267 2 gusting 3 21.1
2014-Apr-22 13:44 271 1 gusting 6 20.0
2014-Apr-22 13:33 171 1 gusting 6 20.0
2014-Apr-22 13:13 177 1 gusting 5 20.0
2014-Apr-22 12:38 175 19.4
2014-Apr-22 12:05 060 0 gusting 2 18.9
2014-Apr-22 11:55 060 2 gusting 3 18.9
2014-Apr-22 11:21 314 2 gusting 3 18.9
2014-Apr-22 11:10 314 18.9
2014-Apr-22 10:48 010 18.3
2014-Apr-22 10:37 010 18.3
2014-Apr-22 10:28 010 17.8
2014-Apr-22 10:04 010 17.2
2014-Apr-22 09:53 010 17.2
2014-Apr-22 09:42 010 1 gusting 4 16.7
2014-Apr-22 09:31 010 3 gusting 4 16.7
2014-Apr-22 09:20 012 1 gusting 4 16.1
2014-Apr-22 09:09 010 1 gusting 3 15.6
2014-Apr-22 08:58 017 3 gusting 3 15.0
2014-Apr-22 08:37 017 14.4
2014-Apr-22 08:25 017 14.4
2014-Apr-22 07:52 047 0 gusting 4 13.3
2014-Apr-22 07:41 076 13.3
2014-Apr-22 07:30 076 13.3
2014-Apr-22 07:19 084 12.8
2014-Apr-22 06:57 148 11.7
2014-Apr-22 06:46 148 11.7
2014-Apr-22 06:35 148 11.1
2014-Apr-22 06:24 148 0 gusting 4 10.6
2014-Apr-22 06:13 148 2 gusting 2 10.6
2014-Apr-22 06:02 148 10.6
2014-Apr-22 05:51 148 10.0
2014-Apr-22 05:40 148 0 gusting 0 10.0
2014-Apr-22 05:29 148 9.4
2014-Apr-22 05:18 148 9.4
2014-Apr-22 05:07 148 1 9.4
2014-Apr-22 04:56 148 9.4
2014-Apr-22 04:45 148 9.4
2014-Apr-22 04:23 148 9.4
2014-Apr-22 04:01 148 9.4
2014-Apr-22 03:50 148 9.4
2014-Apr-22 03:39 148 9.4
2014-Apr-22 03:28 148 9.4
2014-Apr-22 03:17 148 9.4
2014-Apr-22 03:06 148 9.4
2014-Apr-22 02:55 148 10.0
2014-Apr-22 02:44 148 10.0
2014-Apr-22 02:33 148 10.0
2014-Apr-22 02:12 148 0 10.0
2014-Apr-22 01:49 148 9.4
2014-Apr-22 01:38 148 9.4
2014-Apr-22 01:16 148 9.4
2014-Apr-22 01:05 148 10.0
2014-Apr-22 00:43 148 10.6
2014-Apr-22 00:32 148 11.1
2014-Apr-22 00:10 148 0 gusting 4 11.1
2014-Apr-21 23:59 191 2 gusting 0 11.1
2014-Apr-21 23:48 221 0 gusting 2 11.1
2014-Apr-21 23:37 221 11.1
2014-Apr-21 23:26 221 1 gusting 3 11.7
2014-Apr-21 23:15 221 1 gusting 3 11.7
2014-Apr-21 23:04 221 1 gusting 1 11.7
2014-Apr-21 22:53 221 11.7
2014-Apr-21 22:43 221 0 gusting 4 11.7
2014-Apr-21 22:31 221 0 gusting 3 11.7
2014-Apr-21 22:09 223 1 gusting 4 11.7
2014-Apr-21 21:58 252 2 gusting 3 12.2
2014-Apr-21 21:36 269 1 gusting 3 12.2
2014-Apr-21 21:25 269 12.2
2014-Apr-21 21:14 281 12.8
2014-Apr-21 21:03 281 12.8
2014-Apr-21 20:54 281 0 13.3
2014-Apr-21 20:41 281 1 13.3
2014-Apr-21 20:30 281 13.9
2014-Apr-21 20:19 281 13.9
2014-Apr-21 20:08 281 0 13.9
2014-Apr-21 19:58 281 14.4
2014-Apr-21 19:46 281 14.4
2014-Apr-21 19:35 281 14.4
2014-Apr-21 19:24 281 15.0
2014-Apr-21 19:13 281 15.0
2014-Apr-21 19:02 281 15.0